Погода Черновцы

Погода Черновцы : погода сейчас, прогноз погоды и архив. Всё, что Вы хотите узнать о погоде Черновцы!

Поиск расширенной информации на нашем сайте:

Другие новости

Новости СМИ2

Главная страница сайта

Новости сайта

02.10.2013

Напоминаем, что на нашем новом сайте вы можете получить высокодетализированные прогнозы погоды по пунктам России, СНГ и мира (включающие важные для авиации метеовеличины, такие как направление и скорость ветра, видимость, явления погоды, количество и форма облачности, нижняя и верхняя граница облачности), а также ознакомиться с разнообразными материалами по авиационной метеорологии и подборкой полезных ссылок на эту тему.

Сайт Метеоцентр.Азия посвящён разработке технологий оптимизации авиаметеорологического обслуживания, включая проектирование и перспективное создание нескольких автоматизированных авиаметеорологических систем:
- система выпуска высокодетальных прогностических карт явлений погоды для нижнего воздушного пространства по России и ближнему зарубежью;
- система верификации прогнозов TAF (выпускаемых синоптиками официальных АМСГ РФ и ближнего зарубежья) и AUTOTAF (выпускаемых сайтом Метеоцентр.Азия) - выявление ошибок, онлайн-сопоставление с фактической погодой METAR, автоматическое внесение коррективов в прогнозы при резком отклонении фактической погоды от прогноза, подсчёт оправдываемости прогнозов по элементам и в целом;
- система обработки, анализа и отображения авиаметеорологической информации для применения провайдерами метеорологической информации.


Погода Черновцы - сегодня

Время (UTC), дата Ветер
(°,м/с) 
Видим.   Явления Облачность Т
(°С)
Тd
(°С)
f(%) Тe
(°С)
Pmin
(гПа)
dP
(гПа)
Po
(мм)
O2
(г/м3)
Тmin Tmax R s Состояние
почвы
15 19.01.17 090 (В) 6000 м  дымка  ясно 
-11.2 -12.4 91 -14  1039.9  -1  755  319           
18 19.01.17 тихо ()   2200 м  дымка  ясно 
-12 -12.6 95 -12  1039.5  -0.5  755  319    -6.9       
21 19.01.17 тихо ()   2200 м  дымка{туман}  ясно 
-13 -13.8 94 -13  1039.5  -0.1  755  321           
00 20.01.17 тихо ()   1900 м  дымка{туман}  10/10 100 м 
[St]
-10.5 -10.9 97 -11  1038.7  -0.5  755  317           
03 20.01.17 300 (СЗ) 4000 м  дымка  10/10 120 м 
[St]
-9.6 -9.9 98 -13  1037.6  -0.9  754  316           
06 20.01.17 300 (СЗ) 3500 м  дымка  10/10 100 м 
[St]
-9.5 -9.8 98 -12  1036.6  -1  753  315  -13.9      10  равномерный
сухой снег
100% 
09 20.01.17 350 (С) 5000 м  дымка  8/8 1440 м 
[Sc]
-8 -8.2 98 -10  1036.5  0.1  753  314           
12 20.01.17 330 (СЗ) 9000 м  дымка  8/8 1500 м 
[Sc]
-4.9 -7.3 83 -7  1034.1  -2  752  309           
15 20.01.17 330 (СЗ) 11000 м    9/9 1500 м 
[Sc]
-3.6 -6.8 78 -5  1032.8  -1.1  751  307           
18 20.01.17 320 (СЗ) 10 км    8/8 720 м 
[Sc]
-2.4 -7.2 70 -3  1032.2  -0.4  751  306    -1.9       
21 20.01.17 290 (З) 26000 м    8/8 630 м 
[Sc]
-0.3 -5 71 -3  1031.7  -0.3  750  303           
00 21.01.17 320 (СЗ) 15000 м    8/8 600 м 
[Sc]
+0 -3 80 -2  1030.4  -1.2  749  302           
03 21.01.17 310 (СЗ) 45000 м    8/8 600 м 
[Sc]
+1.3 -0.7 86 -2  1028.7  -1.5  748  300           
06 21.01.17 310 (СЗ) 50000 м    10/10 720 м 
[Sc]
+1.2 -1.1 85 -2  1029.1  0.4  749  300  -2.6      10  равномерный
сухой снег
100% 
09 21.01.17 310 (СЗ) 40000 м    10/10 450 м 
[St]
+1.4 -1.1 83 -2  1030.3  1.2  750  301           
12 21.01.17 310 (СЗ) 35000 м    10/10 500 м 
[St]
+1.3 -1.6 81 -2  1029.9  -0.4  749  301           
15 21.01.17 310 (СЗ) 30000 м    10/10 570 м 
[St]
+1.5 -1 83 -2  1030.4  0.5  750  301           
18 21.01.17 300 (СЗ) 40000 м    10/10 600 м 
[St]
+1.8 -1.3 80 -2  1031.1  0.7  750  300    +1.8       
21 21.01.17 300 (СЗ) 25000 м    10/10 400 м 
[St]
+1.6 -0.9 83 -1  1033.1  1.9  752  301           
00 22.01.17 290 (З) 4500 м  дымка  10/10 180 м 
[St]
+0.9 +0.4 96 -1  1034.3  1.1  752  302           
03 22.01.17 310 (СЗ) 7000 м  слаб. ливневой дождь со снегом  10/10 210 м кучево-дожд. 
[Cb cap]
+0.9 +0.4 96 -1  1034.7  0.4  753  302           
06 22.01.17 310 (СЗ) 5000 м  в посл. час ливневой снег  10/10 150 м кучево-дожд. 
[Cb cap]
+0.7 +0.1 96 1035.4  0.7  753  303  +0.7    0.0  равномерный
мокрый или
старый снег
100% 
09 22.01.17 330 (СЗ) 2200 м  слаб. морось  10/10 450 м 
[St]
+0.7 +0.1 96 +1  1036.3  0.8  754  303           
12 22.01.17 350 (С) 7000 м  в посл. час морось  10/10 500 м 
[St]
+0.9 +0.1 94 1035.3  -0.9  753  302      0.0     
15 22.01.17 тихо ()   5000 м  дымка  10/10 420 м 
[St]
+0.8 -0 94 +1  1034.7  -0.6  753  302           
Время (UTC), дата Ветер
(°,м/с) 
Видим.   Явления Облачность Т
(°С)
Тd
(°С)
f(%) Тe
(°С)
Pmin
(гПа)
dP
(гПа)
Po
(мм)
O2
(г/м3)
Тmin Tmax R s Состояние
почвы

Для получения пояснительной информации подведите курсор к названию столбца.

ПОГОДА Черновцы - архив

Всё, что Вы хотите узнать о погоде Черновцы - удобно и подробно!

Выберите нужную дату (начиная с 1 января 2015* года) и нажмите кнопку "Найти".
Будут отображены архивные сводки погоды по пункту Черновцы, начиная с указанной даты.


Отображать данные в формате CSV (для использования в таблицах Excel)


Внимание! Наш архив погоды предназначен исключительно для личного некоммерческого использования в познавательных целях. Если Вам необходимы официальные справки о состоянии погоды (для производственных, юридических, коммерческих и т.п. целей), обращайтесь в органы Росгидромета.

*Примечание: данная дата относится к архиву по метеостанциям СССР (Россия, СНГ, Балтия).
Архив по метеостанциям Зарубежной Европы и Азии (кроме Китая) хранится 10 дней, по другим регионам земного шара (Китай, Африка, Америка, Австралия, Океания) - 1 день.

Черновцы - район местоположения метеостанции


Название, широта, долгота, высота метеостанции:
Черновцы 48.4°ш. 25.9°д. 246 м над ур. моря [Украина]

Дополнительная информация

В oтличие oт бoльшинства пoгoдных сайтoв мы публикуем пoдрoбную метеoинфoрмацию в детальнoм прoфессиoнальнoм фoрмате.

Характеристики температуры и влажнoсти вoздуха измеряются на высoте 2 м в тени вдали oт зданий и деревьев.
Скoрoсть ветра измеряется на высoте 10 м (на урoвне рoста челoвека скoрoсть ветра ниже в 1.5-2 раза). Если метеoстанция нахoдится в гoрoде или в лесу, тo скoрoсть ветра занижена на 2-4 м/с пo сравнению с oткрытым местoм. Скoрoсть ветра над акватoриями крупных рек и oзёр, а также на вершинах хoлмoв на 2-5 м/с выше, чем в oбычных услoвиях.
Атмoсфернoе давление в разных тoчках местнoсти мoжет значительнo oтличаться oт давления на метеoстанции, в зависимoсти oт услoвий рельефа (при пoдъёме на 10 м давление пoнижается примернo на 1 мм рт.ст.).